{"data":{"norad_id":39731,"epoch":"2026-05-25T04:39:28.041984Z","epoch_age_seconds":54707,"freshness":"FRESH","line1":"1 39731U 14024A   26145.19407456 -.00000012  00000+0  92230-5 0  9992","line2":"2 39731  98.3205 218.2123 0001550  86.9017 273.2350 14.42068797635243","mean_motion":14.42068797,"eccentricity":0.000155,"inclination_deg":98.3205,"raan_deg":218.2123,"arg_perigee_deg":86.9017,"mean_anomaly_deg":273.235,"bstar":9.223e-6,"rev_number":63524,"period_min":99.856539646076,"perigee_km":750.56620739857,"apogee_km":752.77644798015,"semimajor_km":7129.8083276894,"source":"CELESTRAK","updated_at":"2026-05-25T13:38:12.783992Z"}}